This is the latest recevied weather packets stored in our database for station/object WA6ODQ-13. If no packets are shown the sender has not sent any weather packets the latest 10 day(s).
| Time | Temp. | Humidity | Pressure | Rain* | Wind** | Luminosity | Snow |
|---|---|---|---|---|---|---|---|
| 1777836569 | 17.78° C | 62% | 1010.3 hPa | 0 mm | - | 809 W/m² | - |
| 1777836266 | 17.78° C | 64% | 1010.4 hPa | 0 mm | - | 794 W/m² | - |
| 1777835961 | 17.22° C | 64% | 1010.3 hPa | 0 mm | - | 442 W/m² | - |
| 1777835659 | 17.22° C | 65% | 1010.2 hPa | 0 mm | - | 463 W/m² | - |
| 1777835355 | 16.67° C | 64% | 1010.4 hPa | 0 mm | - | 288 W/m² | - |
| 1777835053 | 17.22° C | 64% | 1010.4 hPa | 0 mm | - | 284 W/m² | - |
| 1777834749 | 17.22° C | 63% | 1010.6 hPa | 0 mm | - | 283 W/m² | - |
| 1777834446 | 17.78° C | 63% | 1010.7 hPa | 0 mm | - | 607 W/m² | - |
| 1777834145 | 17.22° C | 65% | 1010.5 hPa | 0 mm | - | 541 W/m² | - |
| 1777833842 | 17.78° C | 66% | 1010.4 hPa | 0 mm | - | 502 W/m² | - |
| 1777833538 | 17.22° C | 65% | 1010.4 hPa | 0 mm | - | 682 W/m² | - |
| 1777833235 | 16.67° C | 66% | 1010.5 hPa | 0 mm | - | 344 W/m² | - |
| 1777832933 | 16.67° C | 67% | 1010.6 hPa | 0 mm | - | 345 W/m² | - |
| 1777832631 | 16.67° C | 67% | 1010.3 hPa | 0 mm | - | 364 W/m² | - |
| 1777832328 | 16.67° C | 66% | 1010.4 hPa | 0 mm | - | 357 W/m² | - |
| 1777832025 | 16.67° C | 68% | 1010.3 hPa | 0 mm | - | 419 W/m² | - |
| 1777831721 | 16.67° C | 67% | 1010.4 hPa | 0 mm | - | 457 W/m² | - |
| 1777831420 | 16.11° C | 67% | 1010.3 hPa | 0 mm | - | 352 W/m² | - |
| 1777831116 | 16.11° C | 68% | 1010.3 hPa | 0 mm | - | 345 W/m² | - |
| 1777830814 | 16.11° C | 68% | 1010.4 hPa | 0 mm | - | 314 W/m² | - |
| 1777830509 | 16.11° C | 68% | 1010.3 hPa | 0 mm | - | 300 W/m² | - |
| 1777830208 | 16.11° C | 68% | 1010.3 hPa | 0 mm | - | 424 W/m² | - |
| 1777829903 | 16.11° C | 69% | 1010.2 hPa | 0 mm | - | 363 W/m² | - |
| 1777829599 | 16.11° C | 69% | 1010.2 hPa | 0 mm | - | 317 W/m² | - |
| 1777829296 | 16.11° C | 68% | 1010 hPa | 0 mm | - | 360 W/m² | - |
* Rain latest hour (hover to see other rain measurements)
** Current wind speed in m/s (hover to see current wind gust speed)